(16) Psyche
ephemeris date magn radius delta ra dec elong phase
Today9 May 202511.42.531 AU3.466 AU01h52m+09°40'18.7°7.3°
Opposition7 Dec 20259.72.670 AU1.687 AU05h01m+18°00'175.2°1.8°
(16) Psyche - 2025-05-09
astro.vanbuitenen.nl


 
-1 year
-1 month
-1 day
Now
+1 day
+1 month
+1 year

The interactive orbit chart above shows the body's path through the solar system and its position at the given date. Green and blue lines are shown perpendicular to the ecliptic plane: Green if the path is above the ecliptic plane, blue if it is below. (Left-click and drag to rotate the view; Right-click and drag to move the view; Use scroll wheel to zoom in our out.)

The orbital elements of Psyche are:

            e (Eccentricity)                : 0.1340603
            a (Semimajor axis)              : 2.9221228
            i (Inclination)                 : 3.09735
            Ω (Longitude of ascending node) : 150.01955
            ω (Argument of perihelion)      : 229.63980
            M (Mean anomaly)                : 1.28217
            Epoch                           : 2025 May 05

            L (Longitude of perihelion)     : 199.61801
            B (Latitude of perihelion)      : -2.35966
            P (Orbital period in years)     : 5.00            
        

The light curve chart below shows the estimated development of the minor planet's magnitude.


The all-sky chart below shows the path of the minor planet over the same period as the light curve. The current position is marked yellow.





The following chart shows the path of the minor planet in the next few days. The field of view is optimized for (~10x50) binoculars and finderscopes. A more printer-friendly version of the same chart can be found below.




Ephemerides:
Date       Time       RA (2000)    DEC (2000)    delta   radius  elong  phase   PA    magn
2025-05-09 00:00 UT   01 52 56.8   +09 40 45     3.466    2.531   18.7    7.3   244   11.4 
2025-05-09 10:07 UT   01 53 41.0   +09 44 36     3.465    2.531   18.9    7.4   244   11.5 
2025-05-10 00:00 UT   01 54 41.7   +09 49 52     3.462    2.531   19.2    7.5   244   11.5 
2025-05-11 00:00 UT   01 56 26.5   +09 58 56     3.459    2.531   19.7    7.7   245   11.5 
2025-05-12 00:00 UT   01 58 11.3   +10 07 57     3.455    2.531   20.2    7.9   245   11.5 
2025-05-13 00:00 UT   01 59 56.1   +10 16 54     3.451    2.531   20.7    8.1   245   11.5 
2025-05-14 00:00 UT   02 01 40.9   +10 25 48     3.446    2.531   21.2    8.3   245   11.5 
2025-05-15 00:00 UT   02 03 25.8   +10 34 39     3.442    2.531   21.7    8.5   245   11.5 
2025-05-16 00:00 UT   02 05 10.6   +10 43 27     3.438    2.531   22.3    8.7   246   11.5 
2025-05-17 00:00 UT   02 06 55.4   +10 52 11     3.433    2.531   22.8    8.9   246   11.5 
2025-05-18 00:00 UT   02 08 40.1   +11 00 52     3.429    2.532   23.3    9.1   246   11.5 
2025-05-19 00:00 UT   02 10 24.9   +11 09 30     3.424    2.532   23.8    9.3   246   11.5 
2025-05-20 00:00 UT   02 12 09.7   +11 18 04     3.420    2.532   24.3    9.5   246   11.5 
2025-05-21 00:00 UT   02 13 54.4   +11 26 34     3.415    2.532   24.8    9.7   247   11.5 
2025-05-22 00:00 UT   02 15 39.2   +11 35 01     3.410    2.532   25.3    9.8   247   11.5 
2025-05-23 00:00 UT   02 17 23.9   +11 43 24     3.405    2.532   25.8   10.0   247   11.5 
2025-05-24 00:00 UT   02 19 08.6   +11 51 44     3.400    2.532   26.3   10.2   247   11.5 
2025-05-25 00:00 UT   02 20 53.2   +11 59 60     3.395    2.533   26.8   10.4   247   11.5 
2025-05-26 00:00 UT   02 22 37.8   +12 08 12     3.389    2.533   27.4   10.6   247   11.5 
2025-05-27 00:00 UT   02 24 22.4   +12 16 20     3.384    2.533   27.9   10.8   248   11.5 


    Terminology:
            
    delta:  distance between minor planet and earth in AU
    radius: distance between minor planet and sun in AU
    magn:   magnitude (brightness) estimate    
    ra:     right ascension in hours (24h = 360deg)
    dec:    declination in degrees
    elong:  elongation in degrees (angle sun-earth-minor planet)    
    phase:  phase angle in degrees (angle sun-minor planet-earth)        
    AU:     Astronomical Unit (mean distance between earth and sun: 149597870.7 km
    

Orbital elements provided by the MPC (Minor Planet Center).
Calculations by a modified version of AAPlus, a C# implementation of the AA+ project by PJ Naughter from the algorithms presented in the book "Astronomical Algorithms" by Jean Meeus.
NGC2000 dso catalog and star labels from VizieR as provided by the Strasbourg astronomical Data Center.
Tycho2 catalog from the ESO archive.